Vertical_Velocity
19 7 3 -1 4 -5 -1 2 -3 -1 -1 -3 -0 -0 -5 0 -2 -2 1 -1 -2 -1 -1 -2 -1 -1 -2 -0 -0 -1 1 -2 -1 -1 -1 -1 -1 -1 -1 -1 1 -0 -1 6
-0 18 12 1 -4 1 17 12 7 1 -3 -6 -1 2 -3 -1 -1 -2 -0 0 1 1 -0 -1 -1 -1 -0 -1 -1 -2 2 0 -0 -2 -1 1 1 -1 -1 -1 -1 1 -4 3
3 1 6 8 9 12 2 1 -8 -7 -4 1 1 0 -2 -0 -1 -1 1 2 0 -1 -1 -1 -1 -1 -0 1 -1 -1 -2 0 0 1 -3 -1 1 -1 -1 -2 0 0 2 -1
11 4 -8 10 18 5 4 -3 -3 10 -10 -5 3 -2 6 -1 -3 -0 1 -1 -1 1 1 -0 -1 -1 -0 0 1 0 -1 0 -1 -1 0 0 1 -0 -1 1 -0 -0 4 3
15 18 2 14 10 5 -2 2 -8 -5 15 3 1 -3 -4 2 -1 0 2 1 1 -1 -0 1 -1 -1 -0 -0 -0 0 0 1 -0 -1 -1 -1 -1 0 -1 3 3 1 -4 4
3 11 3 8 -12 4 14 13 13 2 4 4 -3 3 2 2 -1 -1 1 2 -1 -0 1 1 1 2 -0 1 1 -0 -1 0 -0 1 -1 -3 -2 7 -0 1 2 -1 -2 0
6 3 -2 1 -4 15 23 12 12 8 0 1 13 -3 4 3 1 -0 2 1 -0 0 1 1 1 1 1 1 1 0 1 -1 -1 1 -2 -7 5 2 -0 -3 1 -1 -2 -2
7 1 9 2 5 1 0 3 5 4 1 8 -6 -6 -0 -0 -0 -1 3 1 -0 1 1 1 3 2 2 2 1 1 0 -1 -2 -4 0 -0 3 3 1 -1 12 -1 -3 -3
-1 8 3 4 2 0 1 3 3 0 4 5 2 2 8 -1 -2 -2 -0 -0 1 0 0 1 3 2 2 1 2 1 -0 -1 -1 -0 -3 -5 0 -0 -1 -4 -2 3 1 1
1 1 2 3 -2 -1 -2 4 1 1 1 -3 -3 1 8 8 0 3 2 1 -1 -1 2 1 2 2 1 1 1 0 -1 -1 0 -1 -4 2 -2 -3 -2 -1 -3 -1 4 0
2 1 5 2 -3 -1 -2 1 2 -0 1 -0 -1 -1 3 4 -2 2 7 -1 1 1 -1 -0 1 2 -0 0 1 1 -1 -3 1 -3 -3 -2 -1 -5 1 1 1 1 -0 -2
2 4 4 -1 -1 1 3 1 0 3 -2 7 3 3 2 2 -8 1 0 -2 -1 -3 -1 4 -1 0 3 1 1 -5 -0 -3 -0 2 -1 -4 -5 -4 -3 -1 3 -1 2 -3
5 3 1 -3 -0 -0 4 -2 1 2 7 1 -2 -3 -1 0 1 3 -0 -1 1 1 3 0 -1 -1 -1 -0 1 0 0 3 0 -3 -1 -4 -4 -0 -1 -2 -1 0 -1 2
1 -1 -2 -1 1 -1 1 -0 3 3 -1 -2 3 1 -2 1 1 0 1 0 -0 -1 -1 -1 1 1 2 2 -2 2 2 -0 -2 3 1 -0 1 -3 -5 -0 -1 -0 0 1
-0 -1 -0 1 -2 -1 -2 -2 1 5 0 -1 1 3 -1 1 1 0 -0 1 0 -1 -2 0 -1 -0 -2 1 2 3 -0 -3 -5 3 1 -4 4 -2 1 1 1 -2 -0 0
1 3 -1 -1 -1 -0 0 1 -0 -2 -1 -2 -2 5 1 1 2 1 0 0 -0 -0 -1 -1 1 3 -2 -1 1 8 -2 -5 -3 3 1 -5 0 -3 -2 -2 -3 -1 -3 -1
-1 -2 -2 -0 1 2 4 10 18 4 1 1 6 0 0 2 2 0 -0 0 1 -0 -1 -2 3 1 -4 1 1 5 3 -4 -8 1 2 -3 3 -4 -2 -4 -3 -2 -2 -3
6 3 4 4 3 -1 11 5 -2 -2 1 2 -1 1 1 1 2 0 0 -1 -2 -0 -1 4 2 -2 -1 -0 6 3 4 -2 -4 -4 -2 0 -0 0 0 0 1 -1 -0 0
0 1 6 7 13 16 3 8 5 4 1 2 3 2 1 -3 -0 -1 -2 -0 -2 1 1 0 -6 5 2 4 3 1 2 1 -5 -3 -1 -2 -1 -1 -1 -1 -1 -0 -2 -1
-1 -1 -0 -2 -3 -0 1 -2 -0 1 -0 -0 1 -0 -1 -1 -1 1 0 -1 -3 -2 2 -3 -2 2 7 2 -1 -0 -1 -3 -0 -2 -2 -2 -3 -3 -2 -2 -2 -2 0 1
0 -5 -1 -1 -1 -0 -0 -1 -1 0 -0 1 1 -1 -2 -1 1 -1 -3 -0 -1 -4 2 -5 -2 4 9 -0 -0 -0 -3 2 -2 -1 -1 -1 -0 -1 -1 -1 -0 -1 -1 0
2 3 1 -0 -2 -0 -0 0 2 3 1 1 -1 -4 -0 0 -1 -2 1 -1 -5 -5 8 -4 -5 17 -0 1 0 -1 -0 0 -0 -1 0 1 1 0 1 2 1 -0 -2 -4
1 -2 -3 -0 1 -1 1 2 3 2 8 4 -2 -1 -2 -2 -2 -4 -1 -4 -4 4 -2 -4 8 3 0 -2 0 3 2 1 3 3 3 3 2 1 -1 -2 -2 -3 -3 -3
6 12 13 2 -1 -0 1 4 4 2 0 -2 -2 -2 -2 2 -2 -1 1 -3 -0 -6 -1 8 -1 2 -1 0 3 1 0 2 1 -0 -1 -2 -2 -1 -2 -3 -3 -4 0 -2
4 0 -0 4 2 1 3 2 -1 -2 -1 1 -0 -1 0 -0 -2 2 1 -3 -5 -0 2 -1 -0 1 0 -0 -0 1 1 -0 -1 -1 -1 -2 -2 -2 -3 -2 -2 -0 -2 0
0 -2 -1 -1 -1 -3 -2 -2 -0 0 1 2 1 1 -1 -1 -1 2 1 -2 -0 -1 -2 -1 1 0 -1 -1 -0 -1 -0 -1 -1 -1 -2 -1 -3 -1 -2 -0 -1 1 -0 -0
-0 -1 0 -4 0 -0 1 2 1 0 1 1 -1 -0 -0 -0 -3 2 3 0 -1 -1 -1 -0 0 -0 -1 -2 -1 -1 -1 -1 -1 -2 -3 -3 -2 -2 -1 -1 -2 -1 -3 -2
Height
5553 5574 5593 5614 5629 5643 5657 5669 5676 5683 5690 5696 5703 5710 5717 5723 5727 5731 5735 5739 5741 5744 5746 5748 5749 5751 5753 5755 5757 5758 5760 5761 5762 5764 5765 5766 5768 5769 5771 5772 5774 5774 5775 5776
5536 5554 5572 5595 5614 5633 5647 5658 5666 5675 5683 5689 5698 5707 5713 5719 5724 5728 5732 5736 5739 5741 5743 5745 5746 5747 5749 5751 5753 5754 5756 5757 5758 5759 5762 5763 5765 5766 5768 5769 5770 5771 5771 5772
5519 5540 5557 5578 5601 5619 5634 5648 5657 5666 5675 5685 5696 5702 5709 5715 5720 5725 5730 5734 5737 5738 5739 5740 5741 5742 5744 5746 5748 5750 5751 5753 5755 5757 5758 5760 5761 5762 5764 5765 5766 5766 5767 5765
5505 5529 5550 5570 5587 5605 5622 5635 5649 5659 5665 5677 5688 5696 5706 5712 5717 5722 5727 5731 5734 5735 5735 5736 5737 5738 5740 5742 5744 5746 5748 5750 5751 5753 5754 5756 5758 5759 5761 5761 5762 5761 5762 5760
5492 5515 5536 5563 5578 5595 5612 5627 5639 5650 5663 5675 5684 5690 5698 5707 5713 5720 5725 5729 5730 5731 5731 5732 5733 5734 5736 5738 5741 5743 5745 5747 5748 5750 5752 5753 5754 5756 5757 5757 5756 5755 5753 5754
5490 5510 5534 5557 5573 5592 5606 5620 5633 5645 5657 5669 5678 5686 5695 5703 5710 5716 5721 5725 5727 5728 5728 5729 5730 5731 5732 5734 5737 5739 5741 5744 5745 5747 5748 5748 5750 5753 5752 5751 5750 5748 5745 5745
5493 5512 5534 5555 5574 5589 5604 5614 5627 5639 5651 5663 5672 5681 5691 5699 5706 5712 5717 5721 5724 5726 5726 5727 5728 5729 5730 5732 5734 5736 5738 5740 5741 5743 5743 5742 5747 5746 5746 5744 5743 5740 5737 5734
5498 5517 5536 5554 5573 5587 5600 5612 5625 5635 5646 5657 5666 5676 5685 5693 5700 5707 5712 5717 5720 5722 5723 5725 5725 5727 5728 5730 5731 5733 5735 5736 5736 5736 5738 5739 5739 5739 5739 5736 5735 5730 5726 5723
5506 5522 5539 5557 5572 5587 5600 5611 5622 5634 5643 5654 5663 5671 5680 5688 5696 5703 5708 5713 5716 5718 5720 5722 5723 5725 5726 5727 5729 5729 5730 5731 5732 5732 5731 5731 5732 5731 5729 5726 5723 5720 5717 5713
5511 5527 5545 5560 5573 5587 5599 5610 5620 5629 5639 5650 5658 5667 5675 5684 5692 5699 5704 5708 5711 5714 5716 5718 5720 5721 5723 5724 5725 5726 5726 5725 5726 5725 5724 5723 5722 5720 5718 5716 5714 5707 5704 5700
5520 5535 5550 5562 5575 5587 5597 5608 5617 5627 5636 5645 5654 5662 5672 5680 5687 5694 5700 5703 5707 5709 5711 5714 5715 5717 5718 5719 5720 5720 5720 5719 5719 5718 5716 5713 5712 5709 5706 5703 5699 5696 5692 5687
5528 5541 5553 5564 5576 5588 5597 5606 5615 5624 5634 5644 5651 5659 5667 5675 5681 5688 5692 5697 5700 5703 5706 5709 5710 5711 5712 5713 5713 5713 5713 5712 5711 5711 5708 5702 5699 5696 5693 5690 5688 5684 5680 5675
5535 5545 5556 5567 5578 5587 5596 5604 5613 5622 5631 5639 5647 5656 5663 5670 5676 5682 5687 5691 5695 5697 5699 5702 5703 5704 5705 5705 5705 5705 5704 5701 5701 5699 5697 5691 5687 5685 5682 5679 5676 5673 5669 5665
5539 5548 5558 5569 5578 5586 5595 5604 5613 5622 5629 5636 5645 5651 5659 5665 5671 5676 5681 5686 5689 5690 5692 5694 5695 5696 5696 5696 5696 5696 5695 5691 5689 5687 5685 5681 5679 5675 5671 5668 5665 5661 5657 5653
5543 5552 5561 5569 5577 5586 5595 5602 5612 5619 5626 5633 5641 5648 5654 5659 5665 5670 5674 5678 5681 5683 5685 5686 5687 5687 5687 5686 5685 5685 5682 5680 5678 5676 5673 5670 5668 5664 5661 5657 5654 5650 5646 5642
5545 5554 5563 5570 5578 5586 5595 5602 5611 5616 5621 5629 5636 5644 5649 5655 5659 5664 5667 5670 5673 5675 5676 5677 5677 5678 5677 5675 5674 5673 5672 5670 5666 5664 5661 5658 5655 5652 5649 5646 5642 5639 5635 5631
5547 5555 5562 5570 5577 5586 5596 5603 5609 5613 5619 5625 5632 5638 5643 5648 5652 5656 5660 5662 5665 5666 5667 5667 5668 5668 5666 5664 5663 5663 5662 5659 5657 5654 5651 5647 5644 5640 5637 5633 5630 5626 5622 5618
5551 5558 5566 5573 5580 5589 5594 5599 5605 5611 5617 5622 5628 5633 5638 5641 5646 5649 5652 5654 5655 5656 5657 5658 5657 5656 5655 5654 5654 5653 5651 5647 5645 5643 5639 5636 5632 5629 5625 5621 5618 5614 5610 5604
5552 5559 5567 5574 5581 5587 5592 5597 5603 5607 5613 5617 5623 5628 5633 5635 5638 5641 5644 5645 5646 5647 5647 5648 5647 5646 5645 5645 5644 5642 5639 5637 5634 5631 5628 5624 5621 5617 5613 5609 5605 5600 5596 5591
5557 5564 5569 5573 5579 5584 5590 5595 5599 5603 5607 5613 5618 5621 5625 5629 5631 5633 5636 5635 5636 5636 5638 5637 5637 5637 5637 5636 5633 5631 5628 5625 5622 5619 5616 5613 5609 5605 5601 5596 5591 5586 5581 5575
5560 5565 5571 5576 5579 5583 5587 5591 5595 5599 5604 5608 5613 5616 5619 5622 5624 5625 5626 5626 5626 5626 5629 5628 5628 5629 5627 5624 5622 5619 5616 5613 5610 5607 5604 5601 5597 5593 5588 5583 5578 5572 5566 5560
5561 5566 5570 5574 5578 5582 5585 5589 5593 5597 5601 5606 5610 5612 5613 5615 5615 5616 5617 5617 5617 5616 5618 5618 5616 5619 5615 5612 5609 5606 5604 5601 5598 5595 5591 5587 5582 5577 5572 5567 5561 5555 5549 5543
5561 5565 5569 5572 5575 5578 5582 5587 5591 5593 5597 5599 5601 5603 5604 5605 5607 5607 5607 5605 5605 5607 5605 5604 5606 5605 5601 5598 5595 5594 5591 5587 5584 5580 5576 5571 5567 5561 5555 5549 5542 5536 5530 5526
5558 5562 5565 5568 5571 5575 5581 5584 5586 5588 5589 5591 5593 5594 5595 5596 5596 5596 5596 5595 5594 5593 5593 5594 5593 5590 5587 5585 5583 5580 5576 5572 5568 5564 5559 5554 5548 5543 5538 5533 5528 5522 5517 5512
5554 5557 5560 5564 5568 5571 5574 5576 5578 5579 5580 5582 5583 5584 5585 5585 5585 5586 5585 5584 5583 5583 5583 5581 5579 5577 5574 5571 5568 5564 5561 5556 5552 5547 5542 5538 5534 5530 5525 5520 5514 5508 5502 5496
5549 5552 5555 5559 5561 5563 5565 5567 5568 5570 5571 5572 5573 5574 5575 5576 5576 5576 5574 5574 5573 5573 5570 5567 5565 5562 5559 5556 5553 5550 5546 5542 5537 5534 5530 5526 5521 5516 5511 5505 5499 5493 5488 5482
5543 5544 5547 5550 5553 5555 5556 5558 5559 5561 5562 5563 5564 5565 5565 5564 5564 5564 5563 5562 5560 5558 5556 5554 5551 5548 5544 5541 5538 5534 5531 5528 5524 5521 5517 5512 5507 5502 5496 5491 5485 5479 5473 5468